STARLINK-35967, 66634

Orbit data source: Space-Track

STARLINK-35967, 66634 is a payload satellite owned by SpaceX/Seattle (US) in LEO that was launched on Sun, 23 Nov 2025 UTC via an FALCON 9 launch vehicle from the Air Force Western Test Range (AFWTR). Payload-class satellites include a variety of spacecraft equipped with specific instruments for various scientific and technological missions. These include communications satellites like Starlink; space stations such as the ISS; scientific satellites like the Hubble; Earth observation satellites from companies like Planet Labs, Umbra, and HawkEye 360; GPS; miniature CubeSats for education and research; and military/defense satellites.

Loading next visibility...
Identifier
66634, 2025-271T
Orbit
LEO
Country
Flag of USUS
Related business
Manufacturer
SpaceX/Seattle
Mission
Operational Commercial Communications
Bus & Motor
STARLINK V2MO, Unknown motor
Mass
575 kg wet, ~530 kg dry
Launch date (UTC)
2025-11-23 (10 months ago)
Launch vehicle
FALCON 9
Launch site
Air Force Western Test Range (AFWTR)
Object type
Payload
Rocket body
Debris
Shape & HBR
Box + 1 Pan, 17.7 m
Radar Cross Section
41.120 m², Large (>1 m²)

Expand to show TLE details & history
Last TLE update: 2 days ago

TLE from 2 days ago
0 STARLINK-35967
1 66634U 25271T   26264.39512188  .00006309  00000-0  19764-3 0  9997
2 66634  53.1595 305.6838 0001247  85.0975 275.0170 15.34410678 47558
Epoch: 2026-09-21T09:28Z
TLE epoch observation values (Epoch: 2026-09-21T09:28:58.530Z)
Latitude
-0.00001°
Longitude
163.16435°
Altitude
463.498 km
Speed
7.636 km/s
True Right ascension
20h 22m 44s
True Declination
0° 00' 00"
Sunlit
Object was in full shadow at epoch
Visualization orbit readout
Latitude
Unknown
Longitude
Unknown
Altitude
Unknown
Speed
Unknown
Apparent Right ascension
Unknown
Apparent Declination
Unknown
Sunlit
N/A
Visualization observer readout
Local Sidereal Time
16:26:31
Azimuth
Unknown
Elevation
Unknown
Doppler factor
Unknown
Orbital elements
Apogee altitude
463.782 km
Perigee altitude
462.075 km
Semi-major axis
6,841.065 km
Eccentricity
0.00012
Inclination
53.1595°
RAAN
305.6838°
Arg. of periapsis
85.0975°
True anomaly
275.00276°
Mean anomaly
275.017°
Eccentric anomaly
275.00988°
Mean motion
3.83581 °/min
Orbital period
93.85 mins
BSTAR
0.00019764
Loading maneuver chart data...
Computing Atmospheric mass density...
Loading historical data...
Loading historical data...
Loading historical data...
Loading historical data...
Loading historical data...
Loading historical data...
Loading historical data...

Documentation

Showing up to 5 results
|